Zurück zum Katalog

STARLINK-32476

AktivKommunikationVLEO
NORAD 61550·PAYLOAD·🇺🇸 United States

Gestartet Oct 15, 2024 von Vandenberg Space Force Base

Loading…

Nächste Überflüge (nächste 24 Stunden)

TLE

AktuellSource: CelesTrak SupGP

Epoche: Sep 15, 2026, 03:40 UTC

1 61550C 24184U   26258.15326389 -.00208170  00000+0 -61492-2 0  2587
2 61550  53.1577 210.7663 0001390  89.3799 102.6878 15.34501585    10

Verfolge STARLINK-32476 in Echtzeit mit AllMySat

Download on the App Store